Flag Weather past 2 weeks in Glasgow, Scotland, United Kingdom

Now
43 °F

Fog.


Feels Like: 40 °F
Forecast: 34 / 43 °F
Wind: 5 mph from East

Location: Glasgow Airport

Current Time: Nov 26, 2014 at 1:46:34 AM

Latest Report: Nov 26, 2014 at 1:20 AM


Visibility: 3 mi

Pressure: 30.09 "Hg

Humidity: 93%

Dew point: 41 °F

Location of GlasgowLocation

Historic Weather in Glasgow — Graph

°F

Glasgow temperature yesterday

Maximum temperature yesterday: 46 °F (at 12:20 AM)
Minimum temperature yesterday: 43 °F (at 3:20 AM)
Average temperature yesterday: 45 °F

Past Weeks' High & Low Weather Summary

 TemperatureHumidityPressure
High55 °F (Nov 12, 12:50 PM)100% (Nov 14, 7:50 PM)30.30 "Hg (Nov 14, 7:50 PM)
Low32 °F (Nov 23, 6:50 AM)71% (Nov 21, 4:20 PM)29.21 "Hg (Nov 12, 4:20 AM)
Average47 °F91%29.79 "Hg
* Reported Nov 11 12:20 AM — Nov 26 12:50 AM, Glasgow, Weather by CustomWeather, © 2014

Note: Actual official high and low records may vary slightly from our data, if they occured in-between our weather recording intervals... More about our weather records

Advertising

Glasgow weather history for previous 24 hours

 ConditionsComfort  
Time TempWeatherWind HumidityBarometerVisibility
12:50 AM
Nov 26
43 °FFog.2 mph93%30.09 "Hg2 mi
12:20 AM45 °FPassing clouds.2 mph93%30.09 "Hg4 mi
11:50 PM
Nov 25
45 °FQuite cool.3 mph93%30.12 "Hg4 mi
11:20 PM45 °FPassing clouds.5 mph100%30.12 "HgN/A
10:50 PM46 °FOvercast.6 mph93%30.12 "HgN/A
10:20 PM45 °FOvercast.3 mph100%30.12 "HgN/A
9:50 PM46 °FOvercast.6 mph93%30.12 "HgN/A
9:20 PM46 °FPassing clouds.7 mph93%30.12 "Hg5 mi
8:50 PM46 °FOvercast.8 mph93%30.15 "Hg4 mi
8:20 PM45 °FPassing clouds.6 mph100%30.15 "Hg4 mi
7:50 PM45 °FPassing clouds.6 mph100%30.15 "Hg4 mi
7:20 PM46 °FPassing clouds.6 mph93%30.15 "Hg4 mi
6:50 PM46 °FPassing clouds.6 mph93%30.15 "Hg4 mi
6:20 PM46 °FPartly cloudy.7 mph93%30.15 "Hg4 mi
5:50 PM45 °FDrizzle. Fog.7 mph100%30.15 "Hg2 mi
5:20 PM45 °FDrizzle. Fog.6 mph100%30.15 "Hg2 mi
4:50 PM45 °FDrizzle. Fog.6 mph100%30.15 "Hg2 mi
4:20 PM45 °FDrizzle. Fog.5 mph100%30.15 "Hg1 mi
3:50 PM46 °FDrizzle. Mostly cloudy.6 mph93%30.15 "Hg3 mi
3:20 PM46 °FFog.7 mph93%30.15 "Hg3 mi
2:50 PM46 °FPartly sunny.7 mph93%30.18 "Hg4 mi
2:20 PM46 °FMostly cloudy.8 mph93%30.18 "Hg5 mi
1:50 PM46 °FMore clouds than sun.6 mph93%30.18 "HgN/A
1:20 PM46 °FLow clouds.6 mph93%30.21 "Hg6 mi
12:50 PM46 °FPartly sunny.6 mph93%30.21 "Hg6 mi
12:20 PM46 °FPartly sunny.5 mph93%30.21 "Hg6 mi
11:50 AM46 °FPartly sunny.7 mph93%30.21 "Hg4 mi
11:20 AM45 °FPartly sunny.6 mph100%30.24 "Hg4 mi
10:50 AM45 °FFog.7 mph100%30.24 "Hg3 mi
10:20 AM45 °FFog.6 mph100%30.24 "Hg3 mi
9:50 AM45 °FFog.6 mph100%30.24 "Hg3 mi
9:20 AM45 °FFog.3 mph100%30.24 "Hg3 mi
8:50 AM45 °FLow clouds.3 mph100%30.24 "Hg4 mi
8:20 AM45 °FFog.1 mph100%30.24 "Hg3 mi
7:50 AM45 °FFog.2 mph100%30.24 "Hg2 mi
7:20 AM45 °FFog.2 mph100%30.24 "Hg2 mi
6:50 AM45 °FFog.2 mph100%30.24 "Hg3 mi
6:20 AM45 °FLow clouds.2 mph100%30.24 "Hg5 mi
5:50 AM45 °FLow clouds.2 mph100%30.24 "HgN/A
5:20 AM45 °FLow clouds.5 mph100%30.24 "Hg4 mi
4:50 AM43 °FFog.3 mph100%30.21 "Hg0 mi
4:20 AM43 °FFog.1 mph100%30.21 "Hg1 mi
3:50 AM43 °FFog.2 mph100%30.21 "Hg0 mi
3:20 AM43 °FFog.2 mph100%30.21 "Hg1 mi
2:50 AM45 °FFog.2 mph93%30.21 "Hg0 mi
2:20 AM45 °FFog.2 mph100%30.21 "Hg2 mi
1:50 AM45 °FFog.3 mph100%30.24 "Hg2 mi
1:20 AM46 °FPartly cloudy.2 mph100%30.24 "Hg3 mi
Weather by CustomWeather, © 2014

See weather overviewHow to use our weather pages